Flag for Poland Weather past 2 weeks in Poznan, Poland

Now
82 °F

Sunny.


Feels Like: 81 °F
Forecast: 65 / 92 °F
Wind: 5 mph from East

Location: Poznan Airport

Current Time: Aug 3, 2015 at 8:20:46 PM

Latest Report: Aug 3, 2015 at 8:00 PM


Visibility: 10 mi

Pressure: 30.07 "Hg

Humidity: 30%

Dew point: 48 °F

Location of PoznanLocation

Historic Weather in Poznan — Graph

°F

Poznan temperature yesterday

Maximum temperature yesterday: 86 °F (at 3:00 PM)
Minimum temperature yesterday: 59 °F (at 5:30 AM)
Average temperature yesterday: 74 °F

Past Weeks' High & Low Weather Summary

 TemperatureHumidityPressure
High88 °F (Aug 3, 3:00 PM)100% (Jul 21, 7:30 PM)30.12 "Hg (Jul 21, 7:30 PM)
Low45 °F (Aug 1, 4:30 AM)24% (Aug 2, 3:00 PM)29.59 "Hg (Jul 25, 4:30 PM)
Average67 °F61%29.88 "Hg
* Reported Jul 19 7:00 PM — Aug 3 7:00 PM, Poznan, Weather by CustomWeather, © 2015

Note: Actual official high and low records may vary slightly from our data, if they occured in-between our weather recording intervals... More about our weather records

Advertising

Poznan weather history for previous 24 hours

 ConditionsComfort  
Time TempWeatherWind HumidityBarometerVisibility
7:00 PM
Mon, Aug 3
86 °FSunny.7 mph27%30.07 "Hg10 mi
6:30 PM86 °FPassing clouds.7 mph27%30.07 "HgN/A
6:00 PM88 °FPassing clouds.8 mph24%30.07 "HgN/A
5:30 PM88 °FPassing clouds.5 mph24%30.07 "HgN/A
5:00 PM88 °FPassing clouds.7 mph24%30.07 "HgN/A
4:30 PM88 °FPassing clouds.6 mph24%30.09 "HgN/A
4:00 PM88 °FPassing clouds.8 mph24%30.09 "HgN/A
3:30 PM88 °FSunny.3 mph24%30.09 "Hg10 mi
3:00 PM88 °FPassing clouds.5 mph24%30.09 "HgN/A
2:30 PM86 °FPassing clouds.6 mph29%30.09 "HgN/A
2:00 PM86 °FPassing clouds.6 mph27%30.09 "HgN/A
1:30 PM86 °FPassing clouds.5 mph27%30.09 "HgN/A
1:00 PM86 °FSunny.5 mph29%30.12 "Hg10 mi
12:30 PM84 °FPassing clouds.6 mph29%30.12 "HgN/A
12:00 PM82 °FPassing clouds.6 mph30%30.12 "HgN/A
11:30 AM82 °FSunny.5 mph32%30.12 "Hg10 mi
11:00 AM81 °FSunny.5 mph37%30.12 "Hg10 mi
10:30 AM79 °FPassing clouds.5 mph45%30.12 "HgN/A
10:00 AM77 °FPassing clouds.5 mph47%30.12 "HgN/A
9:30 AM75 °FPassing clouds.3 mph50%30.12 "HgN/A
9:00 AM73 °FPassing clouds.3 mph50%30.12 "HgN/A
8:30 AM70 °FSunny.2 mph57%30.12 "Hg10 mi
8:00 AM68 °FPassing clouds.3 mph56%30.12 "HgN/A
7:30 AM66 °FSunny.3 mph60%30.12 "Hg10 mi
7:00 AM64 °FSunny.2 mph64%30.12 "Hg10 mi
6:30 AM61 °FSunny.3 mph72%30.12 "Hg10 mi
6:00 AM59 °FClear.2 mph72%30.12 "Hg10 mi
5:00 AM59 °FClear.2 mph72%30.09 "Hg10 mi
4:30 AM61 °FClear.2 mph68%30.09 "Hg10 mi
4:00 AM61 °FClear.2 mph72%30.09 "Hg10 mi
3:30 AM59 °FClear.2 mph77%30.09 "Hg10 mi
3:00 AM63 °FClear.1 mph64%30.09 "Hg10 mi
2:30 AM63 °FClear.2 mph64%30.09 "Hg10 mi
2:00 AM66 °FClear.1 mph56%30.09 "Hg10 mi
1:30 AM68 °FClear.2 mph53%30.12 "Hg10 mi
1:00 AM68 °FClear.3 mph53%30.12 "Hg10 mi
12:30 AM68 °FClear.3 mph53%30.12 "Hg10 mi
12:00 AM68 °FClear.2 mph56%30.12 "Hg10 mi
11:30 PM
Sun, Aug 2
70 °FClear.2 mph50%30.12 "Hg10 mi
11:00 PM72 °FClear.2 mph47%30.12 "Hg10 mi
10:30 PM73 °FClear.5 mph41%30.09 "Hg10 mi
10:00 PM75 °FClear.5 mph41%30.09 "Hg10 mi
9:30 PM75 °FSunny.6 mph39%30.09 "Hg10 mi
9:00 PM79 °FSunny.6 mph34%30.09 "Hg10 mi
8:30 PM81 °FPassing clouds.6 mph32%30.09 "HgN/A
8:00 PM82 °FSunny.2 mph30%30.07 "Hg10 mi
Weather by CustomWeather, © 2015

See weather overviewHow to use our weather pages